STARLINK-11404, 62019

Orbit data source: Space-Track

STARLINK-11404, 62019 is a payload satellite owned by SpaceX/Seattle (US) in LEO that was launched on Mon, 18 Nov 2024 UTC via an FALCON 9 launch vehicle from the Air Force Western Test Range (AFWTR). Payload-class satellites include a variety of spacecraft equipped with specific instruments for various scientific and technological missions. These include communications satellites like Starlink; space stations such as the ISS; scientific satellites like the Hubble; Earth observation satellites from companies like Planet Labs, Umbra, and HawkEye 360; GPS; miniature CubeSats for education and research; and military/defense satellites.

Loading next visibility...
Identifier
62019, 2024-213M
Orbit
LEO
Country
Flag of USUS
Related business
Manufacturer
SpaceX/Seattle
Mission
Operational Commercial Communications
Bus & Motor
STARLINK V2MD, Unknown motor
Mass
960 kg wet, ~910 kg dry
Launch date (UTC)
2024-11-18 (1 year ago)
Launch vehicle
FALCON 9
Launch site
Air Force Western Test Range (AFWTR)
Object type
Payload
Rocket body
Debris
Shape & HBR
Box + 2 Pan, 18.1 m
Radar Cross Section
36.964 m², Large (>1 m²)

Expand to show TLE details & history
Last TLE update: 17 hours ago

TLE from 17 hours ago
0 STARLINK-11404
1 62019U 24213M   26073.10245422  .00241423  00000-0  19407-2 0  9997
2 62019  53.1571  19.8465 0001212  54.8109 305.3022 15.69703085 75605
Epoch: 2026-03-14T02:27Z
TLE epoch observation values (Epoch: 2026-03-14T02:27:32.044Z)
Latitude
-0.00005°
Longitude
171.23449°
Altitude
360.189 km
Speed
7.695 km/s
True Right ascension
01h 19m 23s
True Declination
0° 00' 00"
Sunlit
Object was in daylight at epoch
Visualization orbit readout
Latitude
Unknown
Longitude
Unknown
Altitude
Unknown
Speed
Unknown
Apparent Right ascension
Unknown
Apparent Declination
Unknown
Sunlit
N/A
Visualization observer readout
Local Sidereal Time
23:45:51
Azimuth
Unknown
Elevation
Unknown
Doppler factor
Unknown
Orbital elements
Apogee altitude
360.824 km
Perigee altitude
359.191 km
Semi-major axis
6,738.145 km
Eccentricity
0.00012
Inclination
53.1571°
RAAN
19.8465°
Arg. of periapsis
54.8109°
True anomaly
305.29086°
Mean anomaly
305.3022°
Eccentric anomaly
305.29653°
Mean motion
3.92403 °/min
Orbital period
91.74 mins
BSTAR
0.0019407
Loading maneuver chart data...
Computing Atmospheric mass density...
Loading historical data...
Loading historical data...
Loading historical data...
Loading historical data...
Loading historical data...
Loading historical data...
Loading historical data...

Documentation

Showing up to 5 results
|